星链-34541 (STARLINK-34541)

导读

STARLINK-34541是美国SpaceX公司星链(Starlink)互联网星座中的一颗卫星,于2025年7月8日由美国发射升空。星链星座旨在为全球提供高速低延迟卫星互联网服务,该卫星入轨后将参与星座组网,拓展星链在全球范围的覆盖能力,尤其可为偏远地区、海洋等网络基础设施薄弱区域提供网络连接服务,进一步巩固美国在低轨卫星互联网领域的部署优势。

基本信息
目录编号:
64771
目录名称:
STARLINK-34541
国际标识:
2025-147S
轨道中心:
EARTH
卫星名称:
星链-34541
卫星全名:
星链-34541 (STARLINK-34541)
卫星状态:
在轨 (已飞行424 天)
发射日期:
2025-07-08 UTC
国别 :
美国 (US)
星等 :
--
轨道信息
数据来源 国际轨道数据
星历时间: 2026-09-04T17:04:21+0800
1天前
查看轨道信息
半长轴: 6840.859km
偏心率: 0.000137
轨道倾角: 53.156°
近地点辐角 91.450°
升交点赤经 128.940°
平近点角 268.666°
近地点: 461.784km
远地点: 463.66km
周期: 93.848分钟
每日圈数: 15.343939
详细信息
固有亮度:
5
最大亮度:
2.5
卫星平台:
Starlink V1.0
覆盖范围:
全球
运营商:
太空探索技术公司
运营商所在国:
美国
制造商(研发单位):
太空探索技术公司
制造商所在国:
美国
使用方式:
暂无
卫星简介
Starlink 计划是 SpaceX 推出的全球卫星互联网项目,通过发射低轨道卫星,为全球尤其是偏远地区提供高速、低延迟的互联网服务。自 2019 年起,Starlink 已部署数千颗卫星,旨在缩小全球数字鸿沟,推动互联网普及。该项目还为军事、航空等行业提供通信支持,带来广泛经济效益。
2D轨道图
3D轨道图
轨道高度分析图
轨道倾角分析图
轨道综合分析图
查看轨道综合分析图
交会数据列表
事件ID 空间交会对象 最接近时刻(TCA) 交会距离 交会风险概率(CRP) 交会风险指数(CRI) 操作
CDM_260906-160106-350006-477122
2026-09-06T
16:01:14+0000
1.304 km
极远距离
7.853577E-6 低风险 0.53
CDM_260907-074605-817106-477121
2026-09-07T
07:46:52+0000
1.054 km
极远距离
6.048137E-6 低风险 0.51
CDM_260907-052605-817106-477121
2026-09-07T
05:26:11+0000
1.072 km
极远距离
5.709773E-6 低风险 0.5
CDM_260905-052905-719606-477121
2026-09-05T
05:29:30+0000
1.703 km
极远距离
4.477262E-6 低风险 0.48
CDM_260907-035205-817106-477121
2026-09-07T
03:52:23+0000
1.550 km
极远距离
1.748662E-6 低风险 0.4
CDM_260905-205404-002406-477123
2026-09-05T
20:54:45+0000
2.848 km
极远距离
1.42516E-6 低风险 0.38
CDM_260907-005005-276306-477123
2026-09-07T
00:50:33+0000
2.477 km
极远距离
1.413766E-6 低风险 0.38
CDM_260907-061305-817106-477121
2026-09-07T
06:13:05+0000
1.878 km
极远距离
1.050214E-6 低风险 0.35